User: anonymous   Login
Location: Goheenville
(40.9070°N, 79.3720°W)
Time: 04:02:19
(UTC-04:00)
Language:

Cosmos 1727 Rocket - Orbit

View from above orbital plane
View from above orbital plane
View from above satellite
View from above satellite

Ground track
Ground track

The orbit data is extracted from the following two-line orbital elements,

1 16511U 86008B   17081.69593122 -.00000054 +00000-0 -71314-4 0  9991
2 16511 082.9409 284.0593 0024550 161.5416 243.5644 13.75811206564129
Epoch (UTC): 22 March 2017 16:42:08
Eccentricity: 0.0024550
inclination: 82.9409°
perigee height: 961 km
apogee height: 997 km
right ascension of ascending node: 284.0593°
argument of perigee: 161.5416°
revolutions per day: 13.75811206
mean anomaly at epoch: 243.5644°
orbit number at epoch: 56412

The dashed part of the orbit path shows where the satellite is in the earth's shadow,  

DLR